TITAN 3C TRANSTAGE DEB, 43448

Orbit data source: Space-Track

TITAN 3C TRANSTAGE DEB, 43448 is space debris in GEO originally from a launch on Sun, 09 Feb 1969 UTC launched from the Air Force Eastern Test Range (AFETR). Debris objects in space refer to the collection of defunct objects orbiting the Earth. Examples of debris include non-operational satellites, rocket bodies, and fragments generated from explosions, collisions, or faulty payload assembly.

Loading next visibility...
Identifier
43448, 1969-013H
Orbit
GEO
Last TLE update
2 days ago
Origin
Manufacturer
Martin Marietta
Mission
Spacecraft
Bus & Motor
Unknown
Mass
Unknown
Launch date (UTC)
1969-02-09 (56 years ago)
Launch vehicle
Unknown
Launch site
Air Force Eastern Test Range (AFETR)
Object type
Payload
Rocket body
Debris
Shape & HBR
Unknown
Radar Cross Section
RCS unknown

Expand to show TLE details & history

TLE from 2 days ago
0 TITAN 3C TRANSTAGE DEB
1 43448U 69013H   25127.56840788 -.00000215  00000-0  00000+0 0  9993
2 43448   0.4138 178.2573 0263490 315.7097 228.2240  0.98707148 25472
Epoch: 2025-05-07T13:38Z
Definitive object data (Epoch: 2025-05-07T13:38:30.44Z)
Latitude
0.00809°
Longitude
-70.27824°
Altitude
36,991.313 km
Speed
3.005 km/s
True Right ascension
23h 59m 59s
True Declination
0° 00' 29"
Sunlit
Object was in daylight at TLE epoch
Visualization TLE readout
Latitude
0.31713°
Longitude
160.80494°
Altitude
36,339.207 km
Speed
3.051 km/s
Apparent Right ascension
15h 39m 12s
Apparent Declination
-5° 40' 31"
Sunlit
Object is in daylight
Visualization observer readout
Local Sidereal Time
13:21:26
Azimuth
136.947° SSE
Elevation
34.47°
Doppler factor
1
Orbital elements
Apogee altitude
37,354.8 km
Perigee altitude
35,109.328 km
Semi-major axis
42,610.201 km
Eccentricity
0.026349
Inclination
0.4138°
RAAN
178.2573°
Arg. of periapsis
315.7097°
True anomaly
226.02122°
Mean anomaly
228.224°
Eccentric anomaly
227.11777°
Mean motion
0.24676 °/min
BSTAR
Unknown
Orbital period
1458.91 mins
Loading historical data...
43448 neighbors
Loading maneuver chart data...
Loading SW <> Apogee altitude chart data...

TITAN 3C TRANSTAGE DEB Visibility forecast

Observer location: undefined°, undefined°

Span
Click to sort rows by Start time (UTC) header in descending order
Start Az.
Max El. time (UTC)
Max El. Az.
Max El.
End time (UTC)
End Az.
1440 mins2025-05-09 05:12:48.151Z136.96° SSE2025-05-09 17:00:48.151Z147.987° SSE31.841°2025-05-10 05:12:48.151Z143.673° SSE
|